HELLAS-SAT 3

Last updated on Fri Jul 11 2025 00:02:45 GMT+0000 (Coordinated Universal Time)

1 42814U 17040A 25191.56946456 .00000165 00000+0 00000+0 0 9994 2 42814 0.0501 50.5838 0004340 19.9597 102.2038 1.00269133 29380
UTC large
Height (km)
Speed (km/s)
/
Latitude / Longitude
Inclination (degrees)
Orbital Period (minutes)
Azimuth
Elevation
Range (km)
Doppler Factor

Next 0 passes for location: London (51.5072 / 0.1276)

Sorry there are no passes over London.